Regional Weather Roundup
Issued by NWS Wakefield, VA

Home | Current Version | Previous Version | Graphics & Text | Print | Product List | Glossary On
Versions: 1 2 3 4 5 6 7 8 9 10 11 12 13 14 15 16 17 18 19 20 21 22 23 24 25 26 27 28
000
ASUS41 KAKQ 232115
RWRAKQ

REGIONAL WEATHER ROUNDUP
NATIONAL WEATHER SERVICE WAKEFIELD VA
400 PM EST THU NOV 23 2017

Note: "fair" indicates few or no clouds below 12,000 feet with no
significant weather and/or obstructions to visibility. * = Denotes
station may not report precipitation (e.g., rain,snow,etc.),
thunder or fog.

VAZ042-051-052>054-056-232200-
NORTHERN VIRGINIA

CITY           SKY/WX    TMP DP  RH WIND       PRES   REMARKS
WASH NATIONAL  PTCLDY    45  21  38 CALM      30.08S
DULLES         PTCLDY    44  22  41 W5        30.07S
FORT BELVOIR   CLEAR     46  20  36 W5        30.07F
QUANTICO       NOT AVBL
FREDERICKSBRG* CLEAR     46  26  45 SW6       30.07S
STAFFORD*      CLEAR     44  22  41 SW3       30.11S
WARRENTON      NOT AVBL
CULPEPER*      CLEAR     45  22  41 SW3       30.08S
MANASSAS*      CLEAR     44  23  43 SW6       30.07F
LEESBURG*      CLEAR     45  27  49 CALM      30.07S
WINCHESTER     CLEAR     41  23  48 CALM      30.04S
FRONT ROYAL*   CLEAR     43  23  45 MISG      30.03S
LURAY*         CLEAR     45  25  45 CALM      30.03S
$$

VAZ048-049-060>072-079>083-232200-
CENTRAL AND SOUTH CENTRAL VIRGINIA

CITY           SKY/WX    TMP DP  RH WIND       PRES   REMARKS
RICHMOND       PTCLDY    44  24  45 CALM      30.08F
CHESTERFIELD*  NOT AVBL
PETERSBURG*    CLOUDY    43  -8  11 CALM      30.08F
HANOVER        CLEAR     44  22  41 CALM      30.09S
TAPPAHANNOCK*    N/A    N/A N/A N/A MISG        N/A
QUINTON*       FAIR      43  25  49 W3G17     30.08S
CHARLOTTSVILLE CLEAR     45  25  45 SE7       30.05S
GORDONSVILLE*  CLEAR     44  25  47 S6        30.06S
ORANGE*        CLEAR     43  25  49 CALM      30.06F
LOUISA*        CLEAR     43  23  44 CALM      30.10S
BUMPASS*       FAIR      43  21  42 W5        30.07S
FARMVILLE*     CLEAR     47  28  47 CALM      30.06S
CREWE*         FAIR      44  26  47 CALM      30.07S
FORT PICKETT*  FAIR      44  25  47 NW3       30.06S
CHASE CITY*    FAIR      47  28  47 CALM      30.06S
CLARKSVILLE*   FAIR      45  28  53 E3        30.06S
SOUTH HILL*    PTCLDY    45  26  48 CALM      30.12S
LAWRENCEVILLE* FAIR      45  26  47 CALM      30.07S
EMPORIA*       PTCLDY    45  27  49 CALM      30.09S
$$

VAZ088>098-232200-
SOUTHEAST VIRGINIA

CITY           SKY/WX    TMP DP  RH WIND       PRES   REMARKS
NORFOLK        MOCLDY    45  31  58 VRB3      30.07S
VIRGINIA BEACH CLOUDY    43  29  57 N5        30.07S
NORFOLK NAVAL  MOCLDY    45  25  45 W5        30.09S
WEST POINT*    CLOUDY    43  25  49 CALM      30.10S
SALUDA*        FAIR      42  28  57 CALM      30.08S
NEWPORT NEWS   CLOUDY    44  25  47 NW3       30.09R
LANGLEY AFB    MOCLDY    43  30  60 NE5       30.08R
FORT EUSTIS    PTCLDY    44  27  51 N3        30.06S
WILLIAMSBURG*  MOCLDY    46  28  49 CALM      30.10S
HR EXEC AP*    NOT AVBL
FRANKLIN*      CLOUDY    45  29  54 N3        30.08S
US460-WAKEFLD  CLOUDY    45  28  51 CALM      30.08S
$$

VAZ020-022-025-037-045-232200-
WEST CENTRAL AND SOUTHWEST VIRGINIA

CITY           SKY/WX    TMP DP  RH WIND       PRES   REMARKS
STAUNTON*      CLEAR     44  23  44 CALM      30.04R
WAYNESBORO*    CLEAR     44  25  47 E5        30.01S
HOT SPRINGS VA CLEAR     41   9  27 CALM      29.96S
LYNCHBURG      CLEAR     45  24  43 S7        30.05S
DANVILLE       SUNNY     48  27  44 CALM      30.05F
SOUTH BOSTON*  FAIR      47  25  42 NW5       30.07S
MARTINSVILLE   SUNNY     48  24  38 SE6       30.06S
ROANOKE        SUNNY     48  25  40 S8        30.04S
BLACKSBURG     SUNNY     49  19  30 CALM      30.03R
DUBLIN*        SUNNY     51  16  24 CALM      30.00S
MARION*        SUNNY     51  19  28 SW10      30.02R
HILLSVILLE*    SUNNY     47  24  41 S7        29.98R
RICHLANDS*     FAIR      49  20  32 W6        30.00S
WISE*          SUNNY     50  25  37 SW6       30.01S
ABINGDON*      SUNNY     54  30  40 NW9       30.01R
$$

MDZ021>025-VAZ099-100-232200-
SOUTHERN MARYLAND AND THE DELMARVA PENINSULA

CITY           SKY/WX    TMP DP  RH WIND       PRES   REMARKS
PATUXENT RIVER CLEAR     42  26  53 E3        30.08F
BAY BRIDGE APT CLEAR     41  25  52 S7        30.08S
LEONARDTOWN    CLEAR     43  25  49 W6        30.09S
DOVER          CLEAR     41  28  58 W5        30.07S
GEORGETOWN     CLEAR     42  22  44 W6        30.07F
EASTON         PTCLDY    41  23  48 CALM      30.11F
CAMBRIDGE      CLEAR     41  23  48 CALM      30.08F
SALISBURY      CLEAR     41  27  57 NW5       30.08S
OCEAN CITY     CLEAR     40  26  57 W6        30.08F
WALLOPS ISLAND CLOUDY    40  28  62 MISG      30.09R
ACCOMACK*      CLOUDY    41  30  63 W3        30.09R
$$

NCZ012>017-030>032-232200-
NORTH CENTRAL AND EASTERN NORTH CAROLINA

CITY           SKY/WX    TMP DP  RH WIND       PRES   REMARKS
ROANOKE RAPIDS FAIR      45  28  53 CALM      30.07S
RALEIGH        CLOUDY    48  28  46 CALM      30.06F
ELIZABETH CITY CLOUDY    46  36  68 NE6       30.07F
AHOSKIE*       PTCLDY    44  31  59 CALM      30.08F
EDENTON*       CLOUDY    48  37  64 CALM      30.07F
CURRITUCK*     CLOUDY    44  34  67 NE3       30.07F
KILL DEVIL HLS CLOUDY    45  35  68 CALM      30.06F
MANTEO         CLOUDY    45  36  70 NE9       30.07F
CAPE HATTERAS  CLOUDY    50  42  74 NE8       30.05F
TARBORO*       NOT AVBL
GOLDSBORO      PTSUNNY   47  33  58 NE3       30.05S
WASHINGTON     CLOUDY    47  36  67 CALM      30.08R
GREENVILLE     PTCLDY    46  34  61 CALM      30.08S
NEW BERN       MOCLDY    46  39  76 N8        30.08R
WILMINGTON     CLOUDY    49  39  68 N10       30.05S
$$

VAZ048-232200-
ELSEWHERE

CITY           SKY/WX    TMP DP  RH WIND       PRES   REMARKS
HARRISBURG PA  MOCLDY    41  25  53 CALM      30.04S
BALTIMORE      PTCLDY    43  23  45 VRB3      30.06F
ANNAPOLIS      NOT AVBL
ANDREWS AFB    CLEAR     43  20  39 W3        30.05F
PHILADELPHIA   PTCLDY    42  18  37 CALM      30.05F
HENDERSON NC   CLOUDY    45  25  46 CALM      30.06S
GREENSBORO     MOSUNNY   51  25  36 CALM      30.03S
ROCKY MOUNT    PTCLDY    47  31  53 CALM      30.07S
$$

VAZ100-232200-
MARINE

STATION/POSITION TIME  TEMP    WIND        PRES    WAVE   SWELL
                       AIR SEA DIR/SP/G            HT/PER HT/PER
                 (UTC) (F)     (DEG/KT/KT) (MB)    (FT/S) (FT/S)
BRANDYWINE LGT   2042   42     270/  4/  5 1018.7F
CAPE MAY NJ      2048   40 51  310/  7/  9 1017.9F
LEWES DE         2042   40 49  360/  4/  5 1018.2F
15NM E FENWICK I 2050   41 57  270/  8/ 12 1018.8F   3/10   3/10
OCEAN-CITY-INLET 2042   41 53  300/  5/  6 1018.6F
WACHAPREAGUE VA  2048   41 49  260/  2/  4 1018.8R
THOMAS POINT MD  2100   40 52  170/  6/  7   N/A
GOOSES REEF MD   2050   42     160/  4/  6 1023.8F
COVE POINT MD    2048   39     160/  6/  7 1019.3F
SOLOMONS ISLAND  2042   42 53  120/  5/  6 1018.2F
BISHOPS HEAD MD  2048   40 47  190/  3/  4 1019.3S
PINEY POINT MD   2048          330/  8/ 10   N/A
POTOMAC MD       2050   43     320/  6/ 10 1018.2F
CAMBRIDGE MD     2042   40 49              1019.3F
LEWISETTA VA     2042   42 49   10/  4/  5 1018.8F
RAPPAHANNOCK LGT 2048          270/  7/  9 1019.3S
STINGRAY PT      2050   43     330/  4/  8 1019.0S
YORK RVR RNG VA  2048   43      50/  3/  4 1019.1S
YORKTOWN VA      2048   44 54  350/  2/  3 1018.4R
JAMESTOWN VA     2050          320/  6/  8   N/A
DOMINION TERM VA 2048   45      10/  1/  6 1018.7R
KIPTOPEKE VA     2048      53   10/  1/  4   N/A
CAPE HENRY VA    2048   43     330/  5/  6   N/A
WILLOUBY STN VA  2042   44     300/  4/  5 1018.3S
S CRANEY ISL VA  2048   44     340/  3/  6 1018.3S
CAPE HENRY BUOY  2100      59                N/A     3/ 9   2/11
1ST LANDING BUOY 2050   43     350/  6/  8 1018.8S
CAPE CHARLES BUO 2051      58                N/A     3/ 9   2/11
64NM E OF VA BCH 2050   46 60  330/  6/ 10 1018.6S   6/ 9   7/ 9
DUCK PIER NC     2048   45 58   10/  5/  9 1017.6F
44100 DUCK FRF   2045      60                N/A     4/ 9   2/11
44056 DUCK FRF   2100      60                N/A     4/11   2/11
OREGON INLET NC  2042   47 58  360/  9/ 12 1017.9F
HATTERAS NC      2048   49 58   30/ 13/ 17 1017.4S
DIAMOND SHLS NC  2100   55 72   10/ 17/ 19 1017.4
CAPE LOOKOUT NC  2100           10/ 11/ 14 1017.8R
$$




USA.gov is the U.S. government's official web portal to all federal, state and local government web resources and services.